GW6628 Weather Reports


time (UTC)temp
C
wind
direction
speed
KPH
gust
KPH
rain 1hr
cm
rain 24hr
cm
rain mn
cm
humidity
%
barometer
mb
20260905205004 35 99 0.0 3.2 0.00 0.00 0.00 63 1011.4
20260905204516 35 138 0.0 3.2 0.00 0.00 0.00 66 1011.3
20260905204005 34 85 0.0 9.7 0.00 0.00 0.00 60 1011.3
20260905203506 35 85 1.6 9.7 0.00 0.00 0.00 62 1011.4
20260905203010 35 67 3.2 6.4 0.00 0.00 0.00 58 1011.5
20260905202506 35 73 3.2 9.7 0.00 0.00 0.00 57 1011.5
20260905202006 35 84 0.0 9.7 0.00 0.00 0.00 59 1011.6
20260905201508 35 86 4.8 8.0 0.00 0.00 0.00 60 1011.6
20260905201007 35 55 1.6 4.8 0.00 0.00 0.00 62 1011.6
20260905200503 35 62 1.6 3.2 0.00 0.00 0.00 65 1011.8
20260905200009 34 49 1.6 3.2 0.00 0.00 0.00 66 1011.8
20260905195504 33 49 1.6 1.6 0.00 0.00 0.00 70 1011.8
20260905195007 33 73 1.6 3.2 0.00 0.00 0.00 73 1011.9
20260905194513 33 73 1.6 3.2 0.00 0.00 0.00 66 1012.1
20260905194004 33 80 1.6 3.2 0.00 0.00 0.00 59 1012.2
20260905193505 33 267 0.0 3.2 0.00 0.00 0.00 65 1012.3
20260905193012 34 267 0.0 3.2 0.00 0.00 0.00 64 1012.4
20260905192506 34 267 1.6 4.8 0.00 0.00 0.00 56 1012.5
20260905192006 34 100 0.0 4.8 0.00 0.00 0.00 57 1012.5
20260905191512 35 79 1.6 3.2 0.00 0.00 0.00 61 1012.6
20260905191010 35 89 1.6 4.8 0.00 0.00 0.00 62 1012.8
20260905190508 35 41 1.6 4.8 0.00 0.00 0.00 57 1012.9
20260905190013 35 176 1.6 6.4 0.00 0.00 0.00 56 1013.0
20260905185505 35 356 3.2 6.4 0.00 0.00 0.00 59 1013.0
20260905185006 35 69 1.6 11.3 0.00 0.00 0.00 56 1012.9
20260905184513 35 54 4.8 11.3 0.00 0.00 0.00 56 1013.0
20260905184004 35 103 1.6 8.0 0.00 0.00 0.00 56 1013.2
20260905183504 35 89 1.6 8.0 0.00 0.00 0.00 58 1013.3
20260905183014 36 186 1.6 8.0 0.00 0.00 0.00 58 1013.2
20260905182505 35 180 1.6 6.4 0.00 0.00 0.00 61 1013.3
20260905182007 35 90 1.6 6.4 0.00 0.00 0.00 58 1013.4
20260905181515 35 23 3.2 4.8 0.00 0.00 0.00 59 1013.5
20260905181007 35 94 1.6 6.4 0.00 0.00 0.00 58 1013.5
20260905180504 35 161 4.8 9.7 0.00 0.00 0.00 57 1013.5
20260905180015 35 138 1.6 11.3 0.00 0.00 0.00 60 1013.7
20260905175508 35 60 4.8 11.3 0.00 0.00 0.00 59 1013.7
20260905175007 35 24 1.6 4.8 0.00 0.00 0.00 59 1013.7
20260905174512 35 38 0.0 8.0 0.00 0.00 0.00 60 1013.9
20260905174012 35 56 1.6 8.0 0.00 0.00 0.00 61 1014.0
20260905173504 35 69 3.2 9.7 0.00 0.00 0.00 63 1014.1
20260905173007 35 80 3.2 9.7 0.00 0.00 0.00 63 1014.2
20260905172506 34 86 3.2 6.4 0.00 0.00 0.00 58 1014.2
20260905172006 34 45 3.2 6.4 0.00 0.00 0.00 59 1014.2
20260905171519 33 227 1.6 9.7 0.00 0.00 0.00 61 1014.2
20260905171007 34 151 6.4 9.7 0.00 0.00 0.00 60 1014.3
20260905170505 33 53 3.2 11.3 0.00 0.00 0.00 63 1014.3
20260905170016 34 61 6.4 11.3 0.00 0.00 0.00 60 1014.4
20260905165507 33 79 6.4 9.7 0.00 0.00 0.00 63 1014.5
20260905165012 33 192 3.2 6.4 0.00 0.00 0.00 60 1014.5
20260905164514 33 69 4.8 6.4 0.00 0.00 0.00 61 1014.5
20260905164008 33 73 3.2 4.8 0.00 0.00 0.00 61 1014.6
20260905163508 33 200 1.6 12.9 0.00 0.00 0.00 63 1014.7
20260905163017 33 27 3.2 16.1 0.00 0.00 0.00 61 1014.9
20260905162504 33 71 9.7 16.1 0.00 0.00 0.00 63 1015.0
20260905162005 33 67 1.6 4.8 0.00 0.00 0.00 62 1015.0
20260905161509 32 126 0.0 11.3 0.00 0.00 0.00 61 1015.0
20260905161005 32 94 3.2 11.3 0.00 0.00 0.00 62 1015.1
20260905160504 32 77 4.8 11.3 0.00 0.00 0.00 63 1015.1
20260905160023 32 65 4.8 11.3 0.00 0.00 0.00 66 1015.1
20260905155509 32 134 1.6 9.7 0.00 0.00 0.00 67 1015.1
20260905155011 32 164 0.0 16.1 0.00 0.00 0.00 67 1015.1
20260905154518 31 72 6.4 16.1 0.00 0.00 0.00 70 1015.2
20260905154011 31 93 6.4 11.3 0.00 0.00 0.00 71 1015.3
20260905153510 31 76 6.4 11.3 0.00 0.00 0.00 69 1015.2
20260905153021 31 48 3.2 19.3 0.00 0.00 0.00 67 1015.1
20260905152510 31 90 4.8 19.3 0.00 0.00 0.00 72 1015.2
20260905152008 31 72 6.4 22.5 0.00 0.00 0.00 73 1015.2
20260905151509 30 116 4.8 22.5 0.00 0.00 0.00 73 1015.2
20260905151004 31 67 9.7 20.9 0.00 0.00 0.00 72 1015.2
20260905150507 31 74 3.2 8.0 0.00 0.00 0.00 70 1015.2
20260905150014 31 355 3.2 8.0 0.00 0.00 0.00 68 1015.1
20260905145506 31 305 4.8 6.4 0.00 0.00 0.00 66 1015.0
20260905145011 31 170 0.0 3.2 0.00 0.00 0.00 71 1015.1
20260905144520 31 170 0.0 4.8 0.00 0.00 0.00 70 1015.1
20260905144014 31 101 1.6 4.8 0.00 0.00 0.00 73 1015.1
20260905143021 30 239 0.0 4.8 0.00 0.00 0.00 73 1015.1
20260905142509 30 192 3.2 4.8 0.00 0.00 0.00 77 1015.0
20260905142007 30 77 1.6 3.2 0.00 0.00 0.00 75 1015.2
20260905141520 30 72 1.6 3.2 0.00 0.00 0.00 77 1015.2
20260905141012 29 92 0.0 3.2 0.00 0.00 0.00 79 1015.1
20260905140504 28 57 0.0 4.8 0.00 0.00 0.00 78 1015.0
20260905140011 28 88 3.2 4.8 0.00 0.00 0.00 79 1015.1
20260905135504 28 52 3.2 4.8 0.00 0.00 0.00 83 1015.1
20260905135008 27 203 0.0 3.2 0.00 0.00 0.00 84 1015.0
20260905134518 27 203 0.0 3.2 0.00 0.00 0.00 85 1015.0
20260905134014 26 203 0.0 3.2 0.00 0.00 0.00 87 1015.1
20260905133509 26 203 1.6 3.2 0.00 0.00 0.00 89 1015.1
20260905133023 25 203 1.6 3.2 0.00 0.00 0.00 93 1015.2
20260905132511 25 225 1.6 3.2 0.00 0.00 0.00 95 1015.2
20260905132009 25 190 1.6 4.8 0.00 0.00 0.00 97 1015.2
20260905131523 24 184 3.2 4.8 0.00 0.00 0.00 97 1015.2
20260905131013 23 239 1.6 3.2 0.00 0.00 0.00 97 1015.2
20260905130509 23 239 0.0 3.2 0.00 0.00 0.00 97 1015.2
20260905130023 23 239 0.0 3.2 0.00 0.00 0.00 96 1015.2
20260905125515 23 239 0.0 3.2 0.00 0.00 0.00 96 1015.3
20260905125005 23 240 0.0 1.6 0.00 0.00 0.00 97 1015.3
20260905124517 23 239 0.0 1.6 0.00 0.00 0.00 96 1015.2
20260905124005 23 240 0.0 3.2 0.00 0.00 0.00 96 1015.2
20260905123507 23 151 1.6 3.2 0.00 0.00 0.00 96 1015.2
20260905123023 23 151 0.0 3.2 0.00 0.00 0.00 96 1015.3
20260905122512 23 151 0.0 3.2 0.00 0.00 0.00 96 1015.2
20260905122011 22 151 0.0 3.2 0.00 0.00 0.00 96 1015.2
20260905121524 22 151 0.0 3.2 0.00 0.00 0.00 96 1015.3
20260905121011 22 151 1.6 3.2 0.00 0.00 0.00 96 1015.2
20260905120510 22 34 0.0 6.4 0.00 0.00 0.00 96 1015.2
20260905120023 22 18 0.0 6.4 0.00 0.00 0.00 96 1015.1
20260905115509 22 28 4.8 6.4 0.00 0.00 0.00 96 1015.1
20260905115009 22 4 0.0 3.2 0.00 0.00 0.00 96 1015.0
20260905114523 22 4 0.0 3.2 0.00 0.00 0.00 96 1014.8
20260905114005 22 4 0.0 3.2 0.00 0.00 0.00 95 1014.7
20260905113507 22 4 0.0 3.2 0.00 0.00 0.00 95 1014.6
20260905113018 22 4 0.0 3.2 0.00 0.00 0.00 96 1014.5
20260905112510 22 4 0.0 0.0 0.00 0.00 0.00 96 1014.4
20260905112010 22 3 0.0 0.0 0.00 0.00 0.00 96 1014.5
20260905111524 22 3 0.0 0.0 0.00 0.00 0.00 96 1014.3
20260905111011 22 4 0.0 0.0 0.00 0.00 0.00 96 1014.2
20260905110512 22 4 0.0 3.2 0.00 0.00 0.00 96 1014.2
20260905110026 22 4 0.0 3.2 0.00 0.00 0.00 96 1014.2
20260905105514 22 4 0.0 3.2 0.00 0.00 0.00 96 1014.2
20260905105016 22 4 0.0 3.2 0.00 0.00 0.00 95 1014.1
20260905104528 22 4 0.0 3.2 0.00 0.00 0.00 95 1014.1
20260905104011 22 4 0.0 3.2 0.00 0.00 0.00 95 1014.0
20260905103512 22 4 0.0 3.2 0.00 0.00 0.00 95 1014.1
20260905103019 22 89 0.0 0.0 0.00 0.00 0.00 95 1014.1
20260905102508 22 89 0.0 3.2 0.00 0.00 0.00 96 1014.1
20260905102008 23 89 0.0 3.2 0.00 0.00 0.00 96 1014.1
20260905101524 23 67 0.0 3.2 0.00 0.00 0.00 96 1014.1
20260905101010 23 67 1.6 3.2 0.00 0.00 0.00 96 1014.2
20260905100514 23 87 1.6 3.2 0.00 0.00 0.00 96 1014.0
20260905100027 22 124 0.0 3.2 0.00 0.00 0.00 96 1013.9
20260905095513 22 124 0.0 0.0 0.00 0.00 0.00 95 1013.9
20260905095012 22 124 0.0 0.0 0.00 0.00 0.00 95 1013.9
20260905094535 22 124 0.0 0.0 0.00 0.00 0.00 96 1013.9
20260905094013 22 124 0.0 0.0 0.00 0.00 0.00 96 1013.9
20260905093514 22 124 0.0 0.0 0.00 0.00 0.00 96 1013.9
20260905093027 22 124 0.0 0.0 0.00 0.00 0.00 95 1013.9
20260905092511 22 124 0.0 0.0 0.00 0.00 0.00 95 1013.8
20260905092008 22 124 0.0 0.0 0.00 0.00 0.00 95 1013.8
20260905091550 22 124 0.0 0.0 0.00 0.00 0.00 95 1013.8
20260905091014 23 124 0.0 3.2 0.00 0.00 0.00 95 1013.7
20260905090510 23 124 0.0 3.2 0.00 0.00 0.00 95 1013.7
20260905090025 23 124 0.0 1.6 0.00 0.00 0.00 95 1013.7
20260905085513 23 124 0.0 1.6 0.00 0.00 0.00 96 1013.7
20260905085017 23 124 0.0 1.6 0.00 0.00 0.00 96 1013.6
20260905084528 23 124 0.0 1.6 0.00 0.00 0.00 95 1013.7
20260905084015 23 174 0.0 0.0 0.00 0.00 0.00 95 1013.6
20260905083516 23 174 0.0 0.0 0.00 0.00 0.00 95 1013.6
20260905083028 23 174 0.0 1.6 0.00 0.00 0.00 95 1013.7
20260905082515 23 174 0.0 1.6 0.00 0.00 0.00 95 1013.7
20260905082012 23 174 0.0 1.6 0.00 0.00 0.00 95 1013.7
20260905081529 23 174 0.0 1.6 0.00 0.00 0.00 95 1013.7
20260905081014 23 174 0.0 1.6 0.00 0.00 0.00 95 1013.7
20260905080515 23 174 0.0 3.2 0.00 0.00 0.00 95 1013.8
20260905080027 23 174 0.0 3.2 0.00 0.00 0.00 95 1013.8
20260905075511 23 174 0.0 3.2 0.00 0.00 0.00 95 1013.8
20260905075013 23 174 0.0 3.2 0.00 0.00 0.00 95 1013.8
20260905074530 23 174 1.6 3.2 0.00 0.00 0.00 95 1013.8
20260905074013 23 115 1.6 3.2 0.00 0.00 0.00 95 1013.9
20260905073503 23 115 0.0 3.2 0.00 0.00 0.00 95 1013.9
20260905073006 23 115 0.0 0.0 0.00 0.00 0.00 95 1013.9
20260905072505 23 115 0.0 0.0 0.00 0.00 0.00 95 1013.9
20260905072007 23 115 0.0 0.0 0.00 0.00 0.00 95 1013.9
20260905071512 23 115 0.0 0.0 0.00 0.00 0.00 95 1013.9
20260905071008 23 115 0.0 0.0 0.00 0.00 0.00 95 1013.9
20260905070507 23 115 0.0 0.0 0.00 0.00 0.00 95 1014.0
20260905070024 23 115 0.0 0.0 0.00 0.00 0.00 95 1014.0
20260905065512 23 115 0.0 3.2 0.00 0.00 0.00 94 1014.0
20260905065013 23 115 0.0 3.2 0.00 0.00 0.00 94 1014.0
20260905064526 23 115 0.0 0.0 0.00 0.00 0.00 94 1014.0
20260905064003 23 115 0.0 0.0 0.00 0.00 0.00 94 1014.1
20260905063503 23 115 0.0 3.2 0.00 0.00 0.00 94 1014.1
20260905063007 23 115 0.0 3.2 0.00 0.00 0.00 94 1014.2
20260905062507 23 115 0.0 3.2 0.00 0.00 0.00 94 1014.2
20260905062006 23 115 0.0 1.6 0.00 0.00 0.00 94 1014.3
20260905061513 23 115 0.0 0.0 0.00 0.00 0.00 94 1014.4
20260905061013 23 115 0.0 0.0 0.00 0.00 0.00 94 1014.4
20260905060511 23 115 0.0 0.0 0.00 0.00 0.00 94 1014.4
20260905060018 23 115 0.0 0.0 0.00 0.00 0.00 94 1014.4
20260905055516 23 115 0.0 0.0 0.00 0.00 0.00 94 1014.2
20260905055011 24 115 0.0 0.0 0.00 0.00 0.00 94 1014.3
20260905054526 24 115 0.0 0.0 0.00 0.00 0.00 94 1014.4
20260905054014 24 115 0.0 0.0 0.00 0.00 0.00 94 1014.4
20260905053512 24 115 0.0 0.0 0.00 0.00 0.00 94 1014.4
20260905053006 24 115 0.0 0.0 0.00 0.00 0.00 94 1014.3
20260905052507 24 115 0.0 3.2 0.00 0.00 0.00 94 1014.4
20260905052004 24 115 0.0 3.2 0.00 0.00 0.00 94 1014.3
20260905051513 24 115 0.0 0.0 0.00 0.00 0.00 93 1014.4
20260905051004 24 115 0.0 0.0 0.00 0.00 0.00 93 1014.4
20260905050511 24 115 0.0 3.2 0.00 0.00 0.00 93 1014.4
20260905050017 25 115 0.0 3.2 0.00 0.00 0.00 93 1014.4
20260905045508 25 115 0.0 3.2 0.00 0.00 0.00 94 1014.4
20260905045011 25 115 0.0 1.6 0.00 0.00 0.00 94 1014.5
20260905044528 25 115 1.6 3.2 0.00 0.00 0.00 93 1014.4
20260905044015 25 115 1.6 3.2 0.00 0.00 0.00 93 1014.5
20260905043514 25 115 0.0 3.2 0.00 0.00 0.00 93 1014.4
20260905043029 25 115 0.0 3.2 0.00 0.00 0.00 93 1014.5
20260905042514 25 115 0.0 3.2 0.00 0.00 0.00 93 1014.4
20260905042004 25 115 0.0 3.2 0.00 0.00 0.00 93 1014.5
20260905041508 25 115 1.6 3.2 0.00 0.00 0.00 93 1014.4
20260905041004 25 115 0.0 3.2 0.00 0.00 0.00 93 1014.4
20260905040507 25 115 1.6 1.6 0.00 0.00 0.00 92 1014.5
20260905040015 25 217 0.0 4.8 0.00 0.00 0.00 91 1014.4
20260905035508 25 217 1.6 4.8 0.00 0.00 0.00 92 1014.5
20260905035009 25 212 1.6 4.8 0.00 0.00 0.00 92 1014.5
20260905034520 25 213 1.6 3.2 0.00 0.00 0.00 92 1014.5
20260905034009 25 105 0.0 3.2 0.00 0.00 0.00 93 1014.6
20260905033513 25 105 0.0 3.2 0.00 0.00 0.00 92 1014.5
20260905033032 25 105 0.0 0.0 0.00 0.00 0.00 92 1014.5
20260905032515 25 105 0.0 0.0 0.00 0.00 0.00 92 1014.4
20260905032014 25 105 0.0 1.6 0.00 0.00 0.00 91 1014.4
20260905031528 25 105 0.0 3.2 0.00 0.00 0.00 91 1014.4
20260905031013 25 105 0.0 3.2 0.00 0.00 0.00 91 1014.5
20260905030506 25 105 0.0 0.0 0.00 0.00 0.00 91 1014.5
20260905030022 25 105 0.0 0.0 0.00 0.00 0.00 91 1014.5
20260905025503 25 105 0.0 0.0 0.00 0.00 0.00 91 1014.5
20260905025005 25 105 0.0 0.0 0.00 0.00 0.00 90 1014.4
20260905024520 26 105 0.0 3.2 0.00 0.00 0.00 90 1014.4
20260905024010 26 105 0.0 3.2 0.00 0.00 0.00 90 1014.4
20260905023508 26 105 1.6 3.2 0.00 0.00 0.00 90 1014.3
20260905023031 26 105 0.0 3.2 0.00 0.00 0.00 90 1014.5
20260905022511 26 105 0.0 3.2 0.00 0.00 0.00 90 1014.5
20260905022012 26 105 0.0 3.2 0.00 0.00 0.00 90 1014.5
20260905021530 26 105 1.6 1.6 0.00 0.00 0.00 89 1014.5
20260905021018 26 105 0.0 3.2 0.00 0.00 0.00 90 1014.4
20260905020516 26 105 0.0 3.2 0.00 0.00 0.00 90 1014.3
20260905020036 26 105 0.0 0.0 0.00 0.00 0.00 90 1014.4
20260905015505 26 105 0.0 3.2 0.00 0.00 0.00 90 1014.4
20260905015007 26 105 0.0 3.2 0.00 0.00 0.00 89 1014.3
20260905014521 26 105 0.0 0.0 0.00 0.00 0.00 88 1014.2
20260905014006 26 105 0.0 0.0 0.00 0.00 0.00 88 1014.2
20260905013509 26 105 0.0 1.6 0.00 0.00 0.00 88 1014.1
20260905013019 27 105 0.0 3.2 0.00 0.00 0.00 88 1014.0
20260905012513 27 105 0.0 3.2 0.00 0.00 0.00 88 1014.0
20260905012013 27 105 0.0 1.6 0.00 0.00 0.00 87 1014.0
20260905011527 27 105 0.0 1.6 0.00 0.00 0.00 87 1014.0
20260905011013 27 105 0.0 3.2 0.00 0.00 0.00 86 1014.0
20260905010516 27 105 0.0 3.2 0.00 0.00 0.00 86 1014.0
20260905010034 27 105 0.0 0.0 0.00 0.00 0.00 86 1013.9
20260905005516 27 105 0.0 0.0 0.00 0.00 0.00 86 1013.8
20260905005017 27 105 0.0 0.0 0.00 0.00 0.00 86 1013.8
20260905004515 28 105 0.0 1.6 0.00 0.00 0.00 85 1013.8
20260905004008 28 105 0.0 3.2 0.00 0.00 0.00 85 1013.8
20260905003509 28 105 0.0 3.2 0.00 0.00 0.00 84 1013.7
20260905003028 28 105 0.0 3.2 0.00 0.00 0.00 83 1013.8
20260905002513 28 105 0.0 3.2 0.00 0.00 0.00 83 1013.8
20260905002016 28 105 0.0 3.2 0.00 0.00 0.00 83 1013.8
20260905001544 28 105 0.0 1.6 0.00 0.00 0.00 82 1013.8
20260905001016 29 105 0.0 3.2 0.00 0.00 0.00 82 1013.8
20260905000512 29 105 0.0 3.2 0.00 0.00 0.00 82 1013.9
20260905000031 30 105 0.0 3.2 0.00 0.00 0.00 82 1013.9
20260904235516 30 105 0.0 3.2 0.00 0.00 0.00 81 1013.9
20260904235017 30 105 0.0 3.2 0.00 0.00 0.00 80 1013.9
20260904234539 30 105 0.0 3.2 0.00 0.00 0.00 79 1013.9
20260904234017 31 105 0.0 3.2 0.00 0.00 0.00 78 1013.9
20260904233508 31 105 0.0 0.0 0.00 0.00 0.00 76 1013.9
20260904233036 31 105 0.0 1.6 0.00 0.00 0.00 74 1013.8
20260904232509 32 105 0.0 1.6 0.00 0.00 0.00 73 1013.7
20260904232012 32 105 0.0 0.0 0.00 0.00 0.00 73 1013.6
20260904231531 33 105 0.0 0.0 0.00 0.00 0.00 72 1013.6
20260904231012 33 105 0.0 0.0 0.00 0.00 0.00 71 1013.6
20260904230515 33 105 0.0 0.0 0.00 0.00 0.00 69 1013.6
20260904230030 33 105 0.0 1.6 0.00 0.00 0.00 70 1013.6
20260904225516 33 105 0.0 3.2 0.00 0.00 0.00 67 1013.5
20260904225014 33 105 0.0 3.2 0.00 0.00 0.00 65 1013.6
20260904224537 33 86 0.0 3.2 0.00 0.00 0.00 65 1013.6
20260904224016 33 86 0.0 3.2 0.00 0.00 0.00 64 1013.6
20260904223515 33 86 0.0 3.2 0.00 0.00 0.00 65 1013.6
20260904223033 33 78 0.0 3.2 0.00 0.00 0.00 66 1013.6
20260904222509 33 78 0.0 3.2 0.00 0.00 0.00 68 1013.6
20260904222006 34 78 0.0 3.2 0.00 0.00 0.00 67 1013.7
20260904221520 34 78 0.0 3.2 0.00 0.00 0.00 65 1013.7
20260904221012 34 79 0.0 6.4 0.00 0.00 0.00 64 1013.7
20260904220510 35 84 1.6 6.4 0.00 0.00 0.00 64 1013.7
20260904220029 35 84 3.2 6.4 0.00 0.00 0.00 62 1013.7
20260904215512 35 71 3.2 6.4 0.00 0.00 0.00 62 1013.8
20260904215013 35 78 3.2 11.3 0.00 0.00 0.00 63 1013.7
20260904214530 35 80 4.8 11.3 0.00 0.00 0.00 62 1013.7
20260904214014 35 86 3.2 6.4 0.00 0.00 0.00 66 1013.8
20260904213521 34 98 1.6 4.8 0.00 0.00 0.00 62 1013.8
20260904213030 34 113 0.0 9.7 0.00 0.00 0.00 62 1013.9
20260904212517 33 113 1.6 9.7 0.00 0.00 0.00 66 1013.9
20260904212019 33 95 0.0 4.8 0.00 0.00 0.00 66 1013.9
20260904211517 33 86 3.2 4.8 0.00 0.00 0.00 66 1013.9
20260904211009 33 80 3.2 4.8 0.00 0.00 0.00 66 1014.0
20260904210509 33 79 3.2 4.8 0.00 0.00 0.00 65 1014.1
20260904210024 34 87 0.0 3.2 0.00 0.00 0.00 65 1014.0
20260904205514 35 87 0.0 4.8 0.00 0.00 0.00 58 1014.1